Вернуться в каталог

THOR ABLESTAR DEB

АктивенLEO
NORAD 136·DEBRIS·🇺🇸 United States

Запущен Jun 29, 1961 с Cape Canaveral Space Force Station

Loading…

Ближайшие Пролёты (ближайшие 24 часа)

TLE

СвежийSource: Space-Track

Эпоха: Sep 9, 2026, 19:23 UTC

1 00136U 61015W   26252.80778013  .00000829  00000-0  27179-3 0  9992
2 00136  67.5276  62.6791 0047143 312.3578  47.3545 14.42315942368969

Отслеживайте THOR ABLESTAR DEB в реальном времени с AllMySat

Download on the App Store